This is the latest recevied weather packets stored in our database for station/object K7DC. If no packets are shown the sender has not sent any weather packets the latest 10 day(s).
| Time | Temp. | Humidity | Pressure | Rain* | Wind** | Luminosity | Snow |
|---|---|---|---|---|---|---|---|
| 1777461681 | 13.33° C | 32% | 1016.3 hPa | 0 mm | - | 0 W/m² | - |
| 1777461382 | 13.33° C | 32% | 1016.6 hPa | 0 mm | - | 0 W/m² | - |
| 1777461078 | 13.33° C | 32% | 1016.6 hPa | 0 mm | - | 0 W/m² | - |
| 1777460774 | 13.89° C | 31% | 1016.3 hPa | 0 mm | - | 0 W/m² | - |
| 1777460470 | 13.89° C | 31% | 1016.5 hPa | 0 mm | - | 0 W/m² | - |
| 1777460165 | 13.89° C | 30% | 1016.5 hPa | 0 mm | - | 0 W/m² | - |
| 1777459863 | 14.44° C | 30% | 1016.5 hPa | 0 mm | - | 0 W/m² | - |
| 1777459560 | 14.44° C | 32% | 1016.4 hPa | 0 mm | - | 0 W/m² | - |
| 1777459257 | 14.44° C | 32% | 1016.5 hPa | 0 mm | - | 0 W/m² | - |
| 1777458955 | 13.89° C | 32% | 1016.4 hPa | 0 mm | - | 0 W/m² | - |
| 1777458651 | 13.89° C | 33% | 1016.4 hPa | 0 mm | - | 0 W/m² | - |
| 1777458348 | 13.89° C | 33% | 1016.5 hPa | 0 mm | - | 0 W/m² | - |
| 1777458043 | 13.89° C | 32% | 1016.5 hPa | 0 mm | - | 0 W/m² | - |
| 1777457739 | 13.89° C | 34% | 1016 hPa | 0 mm | - | 0 W/m² | - |
| 1777457434 | 13.89° C | 34% | 1015.9 hPa | 0 mm | - | 0 W/m² | - |
| 1777457129 | 13.89° C | 32% | 1015.9 hPa | 0 mm | - | 0 W/m² | - |
| 1777456826 | 13.89° C | 32% | 1016.3 hPa | 0 mm | - | 0 W/m² | - |
| 1777456526 | 14.44° C | 29% | 1016.1 hPa | 0 mm | - | 0 W/m² | - |
| 1777456221 | 15° C | 29% | 1016.5 hPa | 0 mm | - | 0 W/m² | - |
| 1777455917 | 15° C | 30% | 1016.5 hPa | 0 mm | - | 0 W/m² | - |
| 1777455615 | 15° C | 30% | 1016.4 hPa | 0 mm | - | 0 W/m² | - |
| 1777455311 | 15° C | 29% | 1016.5 hPa | 0 mm | - | 0 W/m² | - |
| 1777455008 | 15.56° C | 28% | 1016.4 hPa | 0 mm | - | 0 W/m² | - |
| 1777454705 | 15.56° C | 28% | 1016.1 hPa | 0 mm | - | 0 W/m² | - |
| 1777454400 | 15° C | 28% | 1016.3 hPa | 0 mm | - | 0 W/m² | - |
* Rain latest hour (hover to see other rain measurements)
** Current wind speed in m/s (hover to see current wind gust speed)